Regional Weather Roundup
Issued by NWS Northern Indiana

Home | Current Version | Previous Version | Text Only | Print | Product List | Glossary Off
Versions: 1 2 3 4 5 6 7 8 9 10 11 12 13 14 15 16 17 18 19 20 21 22 23 24 25 26 27 28 29 30 31 32 33 34 35 36 37 38 39 40 41 42 43 44 45 46 47 48 49 50

000
ASUS43 KIWX 041610
RWRIWX

KIWX WEATHER ROUNDUP
NATIONAL WEATHER SERVICE NORTHERN INDIANA
1200 PM EDT TUE AUG 04 2015

NOTE: "FAIR" INDICATES FEW OR NO CLOUDS BELOW 12,000 FEET WITH NO
SIGNIFICANT WEATHER AND/OR OBSTRUCTIONS TO VISIBILITY.

* THESE STATIONS ARE NOT UNDER NWS QUALITY CONTROL. THEY ALSO MAY NOT
  REPORT WEATHER SUCH AS PRECIPITATION OR FOG.

INZ001>027-041700-
NORTHERN INDIANA

CITY           SKY/WX    TMP DP  RH WIND       PRES   REMARKS
GARY*          PTSUNNY   79  52  38 W6        29.98S
VALPARAISO     SUNNY     77  52  41 NW5       29.99S
MICHIGAN CITY* SUNNY     77  48  36 W8        29.99S
LAPORTE*       MOSUNNY   78  55  44 W6G17     29.99S
KNOX*          SUNNY     77  55  47 NW9       29.98S
SOUTH BEND     SUNNY     78  55  44 W10       29.98S
ELKHART*       PTSUNNY   77  54  44 W12       29.99R
GOSHEN         SUNNY     76  59  55 W8        29.98S
MONTICELLO*    SUNNY     76  61  60 W7        29.99S
LOGANSPORT*    SUNNY     77  54  44 W8        30.01S
ROCHESTER*     SUNNY     77  59  53 W5        30.00S
WARSAW*        SUNNY     77  59  53 W5        29.99S
ANGOLA*        MOSUNNY   79  63  57 VRB5      29.98R
FORT WAYNE     PTSUNNY   77  59  53 W12       29.99S
HUNTINGTON*    SUNNY     76  58  53 W8        29.99S
PERU/GRISSOM   SUNNY     76  60  57 W12       29.99S
MARION*        SUNNY     75  59  56 W8        30.01S

$$
INZ028>050-041700-
CENTRAL INDIANA

CITY           SKY/WX    TMP DP  RH WIND       PRES   REMARKS
LAFAYETTE      MOSUNNY   76  61  59 SW6       30.00S
KOKOMO*        SUNNY     79  57  47 W10G16    30.00S
MUNCIE*        SUNNY     75  57  53 W10       30.01R
INDIANAPOLIS   PTSUNNY   80  54  40 W8        30.01R

$$
MIZ043>046-050>051-056>058-064>065-071>073-077>080-041700-
SOUTHWEST LOWER MICHIGAN

CITY           SKY/WX    TMP DP  RH WIND       PRES   REMARKS
BATTLE CREEK     N/A    N/A N/A N/A MISG      29.97R
BENTON HARBOR  SUNNY     76  60  57 W12       29.97R
COLDWATER*     SUNNY     76  55  48 W9        29.97S
HILLSDALE*     SUNNY     76  55  47 W10G17    29.97S
HOLLAND        SUNNY     76  57  51 SW12      29.97R
GRAND RAPIDS   MOSUNNY   75  55  49 W15       29.95S
KALAMAZOO      MOSUNNY   78  55  44 W13       29.97S
STURGIS*       MOSUNNY   75  55  50 W7        29.97S
THREE RIVERS*  FAIR      77  53  42 NW13G18   29.97S

$$
OHZ001>008-015>018-024>025-041700-
NORTHWEST OHIO

CITY           SKY/WX    TMP DP  RH WIND       PRES   REMARKS
WAUSEON*       FAIR      77  63  61 W10       29.96S
DEFIANCE       SUNNY     79  59  50 SW8       29.97S
FINDLAY        SUNNY     78  57  48 SW9       29.97S
TOLEDO EXPRESS SUNNY     76  58  53 W13       29.96R
TOLEDO METCALF SUNNY     78  57  48 SW12      29.96S
LIMA           SUNNY     77  55  46 SW12      29.99S

$$
AND FOR LAKE MICHIGAN COASTAL AND OPEN LAKE BUOY OBSERVATIONS

STATION/POSITION TEMP    WIND        PRES    VSBY  WAVE
                 AIR SEA DIR/SP/G                  HT/PER
                 (F)     (DEG/KT/KT) (MB)    (MI)  (FT/S)
CALUMET HARBOR    77     250/  4/  7   N/A
MICHIGAN CITY     70     230/  7/  8   N/A
BURNS HARBOR      72     300/  5/  6 1015.9R
SAINT JOSEPH      76     220/  8/  9 1015.6R
4 MI NW BRIDGMAN  71 73  290/  8/  8   N/A           1/ 3
MICHIGAN CITY     72 74  270/  6/  8   N/A           1/ 3

$$
&&



USA.gov is the U.S. government's official web portal to all federal, state and local government web resources and services.